When you browse on this site, cookies collect data to enhance your experience and personalize the content and advertising you see.
Visit our Privacy Policy to learn more. By continuing to use the site, you agree to this use of cookies and data.
  • In Czech Republic
  • List of Countries
  • For 7 days
  • Water Temperature
  • Weather Map
  • Weather Widgets
  • user-avatar
    Login

    Hourly Weather Biktovo

    Today, 2 June, Tuesday

    Time Temperature Precipitation Wind Pressure Humidity
    00:00 +7°C° 0 mm 2 mps 754 mmHg 90%
    01:00 +6°C° 0 mm 2 mps 754 mmHg 92%
    02:00 +5°C° 0 mm 2 mps 754 mmHg 93%
    03:00 +5°C° 0 mm 2 mps 755 mmHg 94%
    04:00 +4°C° 0 mm 2 mps 755 mmHg 95%
    05:00 +6°C° 0 mm 2 mps 755 mmHg 91%
    06:00 +7°C° 0 mm 3 mps 755 mmHg 87%
    07:00 +8°C° 0 mm 3 mps 756 mmHg 83%
    08:00 +9°C° 0 mm 3 mps 756 mmHg 77%
    09:00 +11°C° 0 mm 3 mps 756 mmHg 72%
    10:00 +12°C° 0 mm 3 mps 756 mmHg 67%
    11:00 +13°C° 0 mm 3 mps 756 mmHg 64%
    12:00 +13°C° 0 mm 3 mps 756 mmHg 62%
    13:00 +14°C° 0 mm 3 mps 756 mmHg 60%
    14:00 +15°C° 0 mm 2 mps 756 mmHg 61%
    15:00 +15°C° 0 mm 2 mps 756 mmHg 62%
    16:00 +15°C° 0 mm 2 mps 756 mmHg 62%
    17:00 +15°C° 0 mm 2 mps 756 mmHg 65%
    18:00 +15°C° 0 mm 2 mps 756 mmHg 67%
    19:00 +15°C° 0 mm 1 mps 756 mmHg 70%
    20:00 +13°C° 0 mm 1 mps 756 mmHg 74%
    21:00 +12°C° 0 mm 1 mps 756 mmHg 78%
    22:00 +10°C° 0 mm 1 mps 756 mmHg 82%
    23:00 +10°C° 0 mm 1 mps 756 mmHg 82%

    Tomorrow, 3 June, Wednesday

    Time Temperature Precipitation Wind Pressure Humidity
    00:00 +10°C° 0 mm 1 mps 756 mmHg 82%
    01:00 +8°C° 0 mm 2 mps 756 mmHg 83%
    02:00 +8°C° 0 mm 2 mps 756 mmHg 85%
    03:00 +7°C° 0 mm 2 mps 757 mmHg 87%
    04:00 +7°C° 0 mm 2 mps 757 mmHg 89%
    05:00 +8°C° 0 mm 2 mps 757 mmHg 84%
    06:00 +9°C° 0 mm 3 mps 756 mmHg 80%
    07:00 +11°C° 0 mm 3 mps 756 mmHg 75%
    08:00 +12°C° 0 mm 3 mps 756 mmHg 70%
    09:00 +14°C° 0 mm 4 mps 757 mmHg 64%
    10:00 +15°C° 0 mm 4 mps 757 mmHg 59%
    11:00 +17°C° 0 mm 4 mps 756 mmHg 56%
    12:00 +18°C° 0 mm 4 mps 756 mmHg 54%
    13:00 +19°C° 0 mm 4 mps 756 mmHg 52%
    14:00 +19°C° 0 mm 4 mps 756 mmHg 52%
    15:00 +19°C° 0 mm 4 mps 756 mmHg 53%
    16:00 +20°C° 0 mm 4 mps 756 mmHg 53%
    17:00 +19°C° 0 mm 3 mps 756 mmHg 57%
    18:00 +18°C° 0 mm 3 mps 756 mmHg 62%
    19:00 +17°C° 0 mm 3 mps 755 mmHg 66%
    20:00 +16°C° 0 mm 3 mps 756 mmHg 68%
    21:00 +13°C° 0 mm 3 mps 756 mmHg 70%
    22:00 +11°C° 0 mm 3 mps 756 mmHg 72%
    23:00 +10°C° 0 mm 3 mps 756 mmHg 74%

    Day after tomorrow, 4 June, Thursday

    Time Temperature Precipitation Wind Pressure Humidity
    00:00 +10°C° 0 mm 3 mps 756 mmHg 76%
    01:00 +9°C° 0 mm 3 mps 756 mmHg 77%
    02:00 +8°C° 0 mm 3 mps 756 mmHg 75%
    03:00 +8°C° 0 mm 3 mps 756 mmHg 73%
    04:00 +7°C° 0 mm 3 mps 756 mmHg 72%
    05:00 +8°C° 0 mm 4 mps 756 mmHg 71%
    06:00 +9°C° 0 mm 5 mps 756 mmHg 71%
    07:00 +10°C° 0 mm 5 mps 755 mmHg 70%
    08:00 +13°C° 0 mm 6 mps 755 mmHg 65%
    09:00 +15°C° 0 mm 6 mps 755 mmHg 60%
    10:00 +17°C° 0 mm 7 mps 755 mmHg 55%
    11:00 +18°C° 0 mm 7 mps 755 mmHg 54%
    12:00 +18°C° 0 mm 7 mps 755 mmHg 54%
    13:00 +20°C° 0 mm 7 mps 755 mmHg 54%
    14:00 +20°C° 0 mm 7 mps 755 mmHg 54%
    15:00 +20°C° 0 mm 7 mps 755 mmHg 55%
    16:00 +20°C° 0 mm 6 mps 755 mmHg 55%
    17:00 +20°C° 0 mm 6 mps 755 mmHg 60%
    18:00 +19°C° 0 mm 5 mps 755 mmHg 64%
    19:00 +18°C° 0 mm 4 mps 755 mmHg 68%
    20:00 +17°C° 0 mm 4 mps 755 mmHg 70%
    21:00 +15°C° 0 mm 4 mps 755 mmHg 73%
    22:00 +13°C° 0 mm 4 mps 756 mmHg 75%
    23:00 +13°C° 0 mm 5 mps 756 mmHg 75%

    5 June, Friday

    Time Temperature Precipitation Wind Pressure Humidity
    00:00 +12°C° 0 mm 5 mps 756 mmHg 75%
    01:00 +12°C° 0 mm 5 mps 756 mmHg 76%
    02:00 +12°C° 0 mm 4 mps 756 mmHg 77%
    03:00 +11°C° 0 mm 4 mps 757 mmHg 79%
    04:00 +11°C° 0 mm 4 mps 757 mmHg 80%
    05:00 +11°C° 0 mm 4 mps 757 mmHg 78%
    06:00 +12°C° 0 mm 5 mps 757 mmHg 76%
    07:00 +13°C° 0 mm 5 mps 757 mmHg 75%
    08:00 +14°C° 0 mm 5 mps 758 mmHg 71%
    09:00 +15°C° 0 mm 5 mps 758 mmHg 68%
    10:00 +17°C° 0 mm 5 mps 758 mmHg 65%
    11:00 +17°C° 0 mm 6 mps 758 mmHg 62%
    12:00 +19°C° 0 mm 6 mps 758 mmHg 59%
    13:00 +20°C° 0 mm 6 mps 758 mmHg 56%
    14:00 +20°C° 0 mm 6 mps 758 mmHg 56%
    15:00 +20°C° 0 mm 6 mps 758 mmHg 55%
    16:00 +20°C° 0 mm 6 mps 758 mmHg 55%
    17:00 +19°C° 0 mm 5 mps 758 mmHg 59%
    18:00 +19°C° 0 mm 4 mps 758 mmHg 64%
    19:00 +18°C° 0 mm 3 mps 757 mmHg 69%
    20:00 +17°C° 0 mm 3 mps 758 mmHg 71%
    21:00 +16°C° 0 mm 3 mps 758 mmHg 74%
    22:00 +13°C° 0 mm 3 mps 758 mmHg 76%
    23:00 +13°C° 0 mm 3 mps 758 mmHg 75%

    6 June, Saturday

    Time Temperature Precipitation Wind Pressure Humidity
    00:00 +12°C° 0 mm 3 mps 758 mmHg 74%
    01:00 +12°C° 0 mm 3 mps 758 mmHg 73%
    02:00 +12°C° 0 mm 3 mps 758 mmHg 73%
    03:00 +11°C° 0 mm 3 mps 758 mmHg 73%
    04:00 +11°C° 0 mm 3 mps 758 mmHg 73%
    05:00 +12°C° 0 mm 3 mps 758 mmHg 72%
    06:00 +13°C° 0 mm 4 mps 758 mmHg 72%
    07:00 +14°C° 0 mm 5 mps 758 mmHg 72%
    08:00 +15°C° 0 mm 5 mps 758 mmHg 67%
    09:00 +16°C° 0 mm 5 mps 758 mmHg 61%
    10:00 +19°C° 0 mm 5 mps 759 mmHg 56%
    11:00 +19°C° 0 mm 6 mps 759 mmHg 54%
    12:00 +20°C° 0 mm 6 mps 759 mmHg 52%
    13:00 +21°C° 0 mm 6 mps 759 mmHg 51%
    14:00 +21°C° 0 mm 6 mps 759 mmHg 51%
    15:00 +21°C° 0 mm 5 mps 758 mmHg 51%
    16:00 +21°C° 0 mm 5 mps 758 mmHg 52%
    17:00 +20°C° 0 mm 4 mps 758 mmHg 57%
    18:00 +20°C° 0 mm 3 mps 758 mmHg 62%
    19:00 +19°C° 0 mm 3 mps 758 mmHg 67%
    20:00 +17°C° 0 mm 2 mps 758 mmHg 69%
    21:00 +16°C° 0 mm 2 mps 758 mmHg 72%
    22:00 +14°C° 0 mm 2 mps 758 mmHg 75%
    23:00 +14°C° 0 mm 1 mps 759 mmHg 77%

    7 June, Sunday

    Time Temperature Precipitation Wind Pressure Humidity
    00:00 +13°C° 0 mm 1 mps 759 mmHg 79%
    01:00 +12°C° 0 mm 1 mps 759 mmHg 82%
    02:00 +12°C° 0 mm 1 mps 759 mmHg 81%
    03:00 +12°C° 0 mm 1 mps 759 mmHg 81%
    04:00 +12°C° 0 mm 2 mps 759 mmHg 80%
    05:00 +13°C° 0 mm 2 mps 759 mmHg 79%
    06:00 +14°C° 0 mm 2 mps 759 mmHg 77%
    07:00 +16°C° 0 mm 2 mps 760 mmHg 76%
    08:00 +17°C° 0 mm 3 mps 760 mmHg 71%
    09:00 +19°C° 0 mm 4 mps 760 mmHg 65%
    10:00 +21°C° 0 mm 4 mps 760 mmHg 60%
    11:00 +22°C° 0 mm 4 mps 760 mmHg 56%
    12:00 +22°C° 0 mm 4 mps 760 mmHg 52%
    13:00 +23°C° 0 mm 5 mps 760 mmHg 48%
    14:00 +23°C° 0 mm 4 mps 760 mmHg 49%
    15:00 +25°C° 0 mm 4 mps 760 mmHg 49%
    16:00 +25°C° 0 mm 4 mps 759 mmHg 49%
    17:00 +24°C° 0 mm 3 mps 759 mmHg 55%
    18:00 +22°C° 0 mm 3 mps 759 mmHg 61%
    19:00 +21°C° 0 mm 2 mps 759 mmHg 66%
    20:00 +20°C° 0 mm 2 mps 759 mmHg 69%
    21:00 +18°C° 0 mm 2 mps 760 mmHg 72%
    22:00 +16°C° 0 mm 2 mps 760 mmHg 75%
    23:00 +16°C° 0 mm 2 mps 760 mmHg 76%
    Show more